Location: Cluj-Napoca
(46.7712°N, 23.6236°E)
Time: 12:17:23
(UTC+03:00)

ISS - Pass Details

Date: 11 May 2021
Orbit: 417 x 422 km, 51.6° (Epoch: 15 May)

Event Time Altitude Azimuth Distance (km) Brightness Sun altitude
Rises 04:37:55 0° 294° (WNW) 2,371 -0.2 -11.7°
Reaches altitude 10° 04:40:03 10° 300° (WNW) 1,506 -1.1 -11.5°
Maximum altitude 04:43:22 52° 18° (NNE) 529 -2.9 -11.1°
Drops below altitude 10° 04:46:41 10° 96° (E) 1,504 -0.3 -10.6°
Sets 04:48:49 0° 102° (ESE) 2,367 0.6 -10.4°
